Satellite: INMARSAT 3-F1
Catalog number: 23839
Epoch time:      103069.64165726
Element set:     884 
Inclination:        0.0531 deg
RA of node:       335.4081 deg
Eccentricity:    0.0003988
Arg of perigee:   358.6836 deg
Mean anomaly:     128.6760 deg
Mean motion:    1.00273595 rev/day
Decay rate:    2.0999E-007 rev/day^2
Epoch rev:            2541
Checksum:              324

Satellite: ASTRA 1F
Catalog number: 23842
Epoch time:      103064.00000000
Element set:     562 
Inclination:        0.0122 deg
RA of node:       319.8851 deg
Eccentricity:    0.0002995
Arg of perigee:    65.1991 deg
Mean anomaly:     156.4263 deg
Mean motion:    1.00273184 rev/day
Decay rate:    1.1099E-006 rev/day^2
Epoch rev:            2526
Checksum:              245

Satellite: JAS 2
Catalog number: 24278
Epoch time:      103069.95417357
Element set:     581 
Inclination:       98.5409 deg
RA of node:       218.4108 deg
Eccentricity:    0.0350789
Arg of perigee:   163.5251 deg
Mean anomaly:     197.7635 deg
Mean motion:   13.52875371 rev/day
Decay rate:    9.4000E-007 rev/day^2
Epoch rev:           32406
Checksum:              335

Satellite: UNAMSAT
Catalog number: 24305
Epoch time:      103069.95909476
Element set:     679 
Inclination:       82.9242 deg
RA of node:       247.6898 deg
Eccentricity:    0.0029419
Arg of perigee:   142.9492 deg
Mean anomaly:     217.3685 deg
Mean motion:   13.73454971 rev/day
Decay rate:    2.0499E-006 rev/day^2
Epoch rev:           32628
Checksum:              365

Satellite: INMARSAT 3-F2
Catalog number: 24307
Epoch time:      103067.96582736
Element set:     92 
Inclination:        0.0475 deg
RA of node:       344.5087 deg
Eccentricity:    0.0004994
Arg of perigee:    10.6448 deg
Mean anomaly:     143.2930 deg
Mean motion:    1.00272604 rev/day
Decay rate:   -1.2100E-006 rev/day^2
Epoch rev:            2380
Checksum:              268

Satellite: HOT BIRD 2
Catalog number: 24665
Epoch time:      103054.87288413
Element set:     344 
Inclination:        0.0674 deg
RA of node:       252.7220 deg
Eccentricity:    0.0007661
Arg of perigee:    70.4027 deg
Mean anomaly:     157.3662 deg
Mean motion:    1.00270188 rev/day
Decay rate:    7.5999E-007 rev/day^2
Epoch rev:            2331
Checksum:              394

Satellite: INMARSAT 3-F3
Catalog number: 24674
Epoch time:      103065.60077771
Element set:     3 
Inclination:        0.0465 deg
RA of node:       312.2906 deg
Eccentricity:    0.0003294
Arg of perigee:   356.7126 deg
Mean anomaly:     249.2867 deg
Mean motion:    1.00275029 rev/day
Decay rate:    3.7000E-007 rev/day^2
Epoch rev:            2274
Checksum:              273

Satellite: GOES 10
Catalog number: 24786
Epoch time:      103070.71437676
Element set:     583 
Inclination:        0.2096 deg
RA of node:       105.4825 deg
Eccentricity:    0.0003386
Arg of perigee:   283.6890 deg
Mean anomaly:     261.3985 deg
Mean motion:    1.00267959 rev/day
Decay rate:    9.2999E-007 rev/day^2
Epoch rev:            2154
Checksum:              332

Satellite: INMARSAT 3-F4
Catalog number: 24819
Epoch time:      103070.38344877
Element set:     894 
Inclination:        0.0519 deg
RA of node:       308.7174 deg
Eccentricity:    0.0004552
Arg of perigee:    53.8666 deg
Mean anomaly:     250.0627 deg
Mean motion:    1.00269125 rev/day
Decay rate:   -2.8300E-006 rev/day^2
Epoch rev:            2121
Checksum:              392

Satellite: FENGYUN 2A
Catalog number: 24834
Epoch time:      103069.69293801
Element set:     977 
Inclination:        2.6220 deg
RA of node:        88.2289 deg
Eccentricity:    0.0001117
Arg of perigee:   243.4482 deg
Mean anomaly:     171.9724 deg
Mean motion:    1.00277853 rev/day
Decay rate:   -1.9399E-006 rev/day^2
Epoch rev:            2104
Checksum:              306

Satellite: HOT BIRD 3
Catalog number: 24931
Epoch time:      103054.87288413
Element set:     428 
Inclination:        0.1004 deg
RA of node:       298.5607 deg
Eccentricity:    0.0010424
Arg of perigee:    36.2408 deg
Mean anomaly:     145.6862 deg
Mean motion:    1.00270404 rev/day
Decay rate:    7.5000E-007 rev/day^2
Epoch rev:            2013
Checksum:              248

Satellite: METEOSAT 7
Catalog number: 24932
Epoch time:      103068.96950559
Element set:     259 
Inclination:        0.2568 deg
RA of node:        74.2476 deg
Eccentricity:    0.0001169
Arg of perigee:   225.2499 deg
Mean anomaly:     217.0209 deg
Mean motion:    1.00263562 rev/day
Decay rate:    9.9999E-009 rev/day^2
Epoch rev:            2021
Checksum:              323

Satellite: ASTRA 1G
Catalog number: 25071
Epoch time:      103064.00000000
Element set:     394 
Inclination:        0.0122 deg
RA of node:       319.8851 deg
Eccentricity:    0.0002995
Arg of perigee:    65.1991 deg
Mean anomaly:     156.4370 deg
Mean motion:    1.00273184 rev/day
Decay rate:    1.1099E-006 rev/day^2
Epoch rev:            1928
Checksum:              248

Satellite: INMARSAT 3-F5
Catalog number: 25153
Epoch time:      103064.83099755
Element set:     853 
Inclination:        0.4578 deg
RA of node:       353.8307 deg
Eccentricity:    0.0004423
Arg of perigee:   227.6819 deg
Mean anomaly:     265.8219 deg
Mean motion:    1.00270482 rev/day
Decay rate:    1.3500E-006 rev/day^2
Epoch rev:            1865
Checksum:              303

Satellite: HOT BIRD 4
Catalog number: 25237
Epoch time:      103055.98151369
Element set:     330 
Inclination:        0.0547 deg
RA of node:       293.1775 deg
Eccentricity:    0.0007524
Arg of perigee:   338.0934 deg
Mean anomaly:     249.5459 deg
Mean motion:    1.00273950 rev/day
Decay rate:    7.4000E-007 rev/day^2
Epoch rev:            1860
Checksum:              290

Satellite: NOAA 15
Catalog number: 25338
Epoch time:      103070.53345041
Element set:     36 
Inclination:       98.5493 deg
RA of node:        92.1149 deg
Eccentricity:    0.0009610
Arg of perigee:   256.5347 deg
Mean anomaly:     103.4762 deg
Mean motion:   14.24254822 rev/day
Decay rate:    2.6899E-006 rev/day^2
Epoch rev:           25078
Checksum:              426

Satellite: RESURS O1-N4
Catalog number: 25394
Epoch time:      103070.22514169
Element set:     467 
Inclination:       98.6289 deg
RA of node:       147.7685 deg
Eccentricity:    0.0002348
Arg of perigee:    60.8611 deg
Mean anomaly:     299.2802 deg
Mean motion:   14.23885858 rev/day
Decay rate:    2.2500E-006 rev/day^2
Epoch rev:           24247
Checksum:              332

Satellite: TMSAT
Catalog number: 25396
Epoch time:      103069.91946701
Element set:     911 
Inclination:       98.6239 deg
RA of node:       146.6262 deg
Eccentricity:    0.0003890
Arg of perigee:    91.6529 deg
Mean anomaly:     268.5102 deg
Mean motion:   14.23516109 rev/day
Decay rate:   -4.3000E-007 rev/day^2
Epoch rev:           24242
Checksum:              301

Satellite: TECHSAT 1B
Catalog number: 25397
Epoch time:      103069.94920192
Element set:     163 
Inclination:       98.6179 deg
RA of node:       145.5065 deg
Eccentricity:    0.0002173
Arg of perigee:    88.1178 deg
Mean anomaly:     272.0247 deg
Mean motion:   14.22964890 rev/day
Decay rate:    1.1099E-006 rev/day^2
Epoch rev:           24239
Checksum:              327

Satellite: ASTRA 2A
Catalog number: 25462
Epoch time:      103064.00000000
Element set:     536 
Inclination:        0.0385 deg
RA of node:       308.7109 deg
Eccentricity:    0.0004824
Arg of perigee:   280.8620 deg
Mean anomaly:     320.9573 deg
Mean motion:    1.00272094 rev/day
Decay rate:    1.4099E-006 rev/day^2
Epoch rev:            1658
Checksum:              248

Satellite: EUTELSAT W2
Catalog number: 25491
Epoch time:      103068.82886807
Element set:     586 
Inclination:        0.0043 deg
RA of node:       231.9842 deg
Eccentricity:    0.0003862
Arg of perigee:   115.0272 deg
Mean anomaly:     134.4551 deg
Mean motion:    1.00274525 rev/day
Decay rate:    1.0700E-006 rev/day^2
Epoch rev:            1624
Checksum:              264

Satellite: HOT BIRD 5
Catalog number: 25495
Epoch time:      103063.86782987
Element set:     503 
Inclination:        0.0348 deg
RA of node:       115.8222 deg
Eccentricity:    0.0002188
Arg of perigee:   119.7671 deg
Mean anomaly:     265.0383 deg
Mean motion:    1.00131550 rev/day
Decay rate:    1.2299E-006 rev/day^2
Epoch rev:            1616
Checksum:              287

Satellite: SEDSAT 1
Catalog number: 25509
Epoch time:      103070.07378911
Element set:     798 
Inclination:       31.4299 deg
RA of node:        37.3664 deg
Eccentricity:    0.0357344
Arg of perigee:   121.8840 deg
Mean anomaly:     241.7113 deg
Mean motion:   14.27458961 rev/day
Decay rate:    7.5500E-006 rev/day^2
Epoch rev:           22824
Checksum:              313

Satellite: PAN SAT
Catalog number: 25520
Epoch time:      103069.46773755
Element set:     662 
Inclination:       28.4560 deg
RA of node:        91.2949 deg
Eccentricity:    0.0006169
Arg of perigee:   206.3294 deg
Mean anomaly:     153.7002 deg
Mean motion:   15.13991464 rev/day
Decay rate:    3.8810E-005 rev/day^2
Epoch rev:           24060
Checksum:              304

Satellite: ISS (ZARYA)
Catalog number: 25544
Epoch time:      103070.50207176
Element set:     768 
Inclination:       51.6347 deg
RA of node:       150.8626 deg
Eccentricity:    0.0011800
Arg of perigee:   303.4173 deg
Mean anomaly:     256.8083 deg
Mean motion:   15.59566701 rev/day
Decay rate:    3.0477E-004 rev/day^2
Epoch rev:           24576
Checksum:              298

